User: anonymous   Login
Location: Unspecified
(0.0000°N, 0.0000°E)
Time: 03:35:43
(UTC+00:00)
Language:

Hubble Space Telescope - Orbit

View from above orbital plane
View from above orbital plane
View from above satellite
View from above satellite

Ground track
Ground track

The orbit data is extracted from the following two-line orbital elements,

1 20580U 90037B   16179.80421296  .00000512  00000-0  20828-4 0  9992
2 20580  28.4687 188.6053 0002602 326.8503  19.9686 15.08405403236718
Epoch (UTC): 27 June 2016 19:18:04
Eccentricity: 0.0002602
inclination: 28.4687°
perigee height: 539 km
apogee height: 543 km
right ascension of ascending node: 188.6053°
argument of perigee: 326.8503°
revolutions per day: 15.08405403
mean anomaly at epoch: 19.9686°
orbit number at epoch: 23671

The dashed part of the orbit path shows where the satellite is in the earth's shadow,  

DLR